Other Surface Observations
Issued by NWS

Home | Current Version | Previous Version | Text Only | Print | Product List | Glossary On
Versions: 1 2 3 4 5 6 7 8 9 10 11 12 13 14 15 16 17 18 19 20 21 22 23 24 25 26 27 28 29 30 31 32 33 34 35 36 37 38 39 40 41 42 43 44 45 46 47 48 49 50
000
SXUS52 KTAE 251918
OSOTAE
OSOTAE
North Florida/South Alabama/Southwest Georgia Weather Roundup
National Weather Service Tallahassee Florida
300 PM EDT SAT APR 25 2015

Note: "fair" indicates few or no clouds below 12,000 feet with no
significant weather and/or obstructions to visibility.

!FLZ017-115-028-034-025-252000
...North Florida...

CITY           SKY/WX    TMP DP  RH WIND       PRES   REMARKS
TALLAHASSEE    TSTM      81  73  76 SW22      29.79F
APALACHICOLA   CLOUDY    83  75  77 SW16      29.83F HX  90
PERRY          PTSUNNY   82  74  76 S18G25    29.83F
CROSS CITY       N/A     85  73  67 SW16G22   29.85F HX  91
JACKSONVILLE   TSTM      68  67  96 SW8       29.81F FOG
$$

!FLZ112-006-005-002-011-252000
...Florida Panhandle...

CITY           SKY/WX    TMP DP  RH WIND       PRES   REMARKS
MARIANNA       PTSUNNY   83  78  85 SW14      29.77F HX  93
BONIFAY        MOCLDY    82  74  76 SW13G21   29.78F
PANAMA CITY NW CLOUDY    82  74  76 SW15G22   29.80F
TYNDALL AFB    PTSUNNY   81  75  83 SW12      29.82F
TYND DRONE APT MOCLDY    79  76  92 SW9G16    29.83S
DE FUNIAK SPR  MOCLDY    82  73  75 SW12G21   29.79F
EGLIN AFB      PTSUNNY   81  74  79 SW13G22   29.80S
DESTIN         CLOUDY    79  75  87 SW8       29.81F
HURLBURT       MOSUNNY   80  73  77 SW10G20   29.79F
CRESTVIEW      PTSUNNY   86  74  67 SW14      29.78F HX  94
PENSACOLA      CLOUDY    84  73  69 SW17G25   29.78F HX  90
$$

!ALZ063-066-252000
...South Alabama...

CITY           SKY/WX    TMP DP  RH WIND       PRES   REMARKS
DOTHAN         PTSUNNY   82  73  74 S13       29.80F
OZARK CAIRNS   MOSUNNY   84  71  66 S8        29.75F
FT RUCKER HELI PTSUNNY   84  74  71 SW9       29.75F HX  91
RUCKER HELI 3  NOT AVBL
RUCKER HELI 2  PTSUNNY   82  76  81 SW9G18    29.75F
FLORALA APT    PTSUNNY   84  72  67 SW13G21   29.77F
ANDALUSIA      PTSUNNY   90  71  53 W12G17    29.74F HX  96
TROY           PTSUNNY   84  73  69 SW13      29.76S HX  90
EUFALA         PTSUNNY   85  72  65 SW10G18   29.74S HX  91
MOBILE         CLOUDY    80  73  79 SW12      29.77F
$$

!GAZ120>161-252000
...Southwest and South Central Georgia...

CITY           SKY/WX    TMP DP  RH WIND       PRES   REMARKS
THOMASVILLE    PTSUNNY   81  73  78 SW13G18   29.80F
BAINBRIDGE     MOSUNNY   86  77  74 SW15      29.78F HX  97
MOODY AFB      PTSUNNY   83  71  66 SW15      29.79F
VALDOSTA       MOSUNNY   81  73  76 VRB6      29.81F
MOULTRIE       PTSUNNY   81  73  78 SW14G24   29.80F
BLAKELY        CLOUDY    82  73  74 SW13      29.77F
ALBANY         CLOUDY    82  71  69 SW16G24   29.78F
TIFTON         PTSUNNY   83  68  61 SW15G24   29.77F
FITZGERALD     FAIR      86  66  51 SW20G25   29.78F
CORDELE        FAIR      86  69  56 W15G23    29.75F
AMERICUS       FAIR      84  68  58 W15G23    29.76F
HOMERVILLE     FAIR      84  72  65 SW13G18   29.81F
$$

!GMZ750-755-770-775-252000
...Coastal and Buoy Obs...

STATION/POSITION TIME  TEMP    WIND        PRES    VSBY  WAVE
                       AIR SEA DIR/SP/G                  HT/PER
                 (UTC) (F)     (DEG/KT/KT) (MB)    (MI)  (FT/S)
KEATON BEACH     1900   77     200/ 14/ 17 1010.7F
CEDAR KEY        1900   80     230/  8/ 12 1011.9F
C TOWER          1900   76     200/ 14/ 15 1010.1F
APALACHICOLA BUO 1850   78 77  210/ 10/ 12 1011.1F         2/ 5
PANAMA CITY BUOY 1850   78 76  230/ 14/ 16 1010.5F         3/ 6
MOBILE BUOY      1850   78 78  210/  8/ 10 1009.1F         4/ 7
ORANGE BCH AL BU 1850   76 75  330/  4/  6 1008.3R         3/ 6
$$



USA.gov is the U.S. government's official web portal to all federal, state and local government web resources and services.